Regional Weather Roundup
Issued by NWS

Home | Current Version | Previous Version | Text Only | Print | Product List | Glossary Off
Versions: 1 2 3 4 5 6 7 8 9 10 11 12 13 14 15 16 17 18 19 20 21 22 23 24 25 26 27 28 29 30 31 32 33 34 35 36 37 38 39 40 41 42 43 44 45 46 47 48 49 50

000
ASUS45 KSLC 222110
RWRUT

UTAH REGIONAL WEATHER ROUNDUP
NATIONAL WEATHER SERVICE SALT LAKE CITY UT
300 PM MDT TUE JUL 22 2014

UTZ001>011-023>025-222200-

NORTHERN UTAH

CITY           SKY/WX    TMP DP  RH WIND       PRES   REMARKS
HILL AFB       SUNNY     91  38  15 VRB7      30.23F
LOGAN          NOT AVBL
OGDEN          SUNNY     93  38  14 W8        30.20F
PROVO AIRPORT  SUNNY     93  36  13 N7        30.20F
SALT LAKE CITY MOSUNNY   96  26   8 W6        30.15F HX  90
VERNAL         SUNNY     93  27   9 SE7       30.26F
WENDOVER       SUNNY     91  37  15 SE9       30.17F
HEBER CITY     SUNNY     95  27   8 W7        30.26F
WEST JORDAN    SUNNY     97  46  17 E10       30.20F HX  93

$$

UTZ012>022-026-027-222200-

SOUTHERN UTAH

CITY           SKY/WX    TMP DP  RH WIND       PRES   REMARKS
BRYCE CANYON   SUNNY     85  32  15 SE17      30.44F
CEDAR CITY     SUNNY     94  30  10 SW20G30   30.26F
MILFORD        SUNNY     94  27   9 S13       30.20F
MOAB/CYNLANDS  SUNNY     98  22   6 MISG      30.17F HX  91
PRICE          SUNNY     95  19   6 S15       30.31F
ST GEORGE      CLEAR    100  36  10 SW8       30.06F HX  95
KANAB            N/A     97  36  11 S6G17     30.24F HX  92

$$

REGIONAL REPORTS     COLORADO/ARIZONA

CITY           SKY/WX    TMP DP  RH WIND       PRES   REMARKS
CRAIG, CO      SUNNY     94  23   8 W6        30.34F
GRAND JUNCTION SUNNY     97  28   8 W12       30.21F HX  91
RIFLE          SUNNY     96  22   7 CALM      30.27F HX  90
MONTROSE       SUNNY     95  33  11 N8        30.29F HX  90
CORTEZ         SUNNY     97  21   6 N8        30.27F HX  90
PAGE, AZ       SUNNY    101  31   8 N7        30.16F HX  94
GRAND CANYON   PTSUNNY   89  32  13 MISG      30.37F
KINGMAN        SUNNY     99  29   8 SW13      30.11F HX  93
FLAGSTAFF      CLOUDY    84  37  18 NE7       30.41F

$$

REGIONAL REPORTS    NEVADA/IDAHO/WYOMING

CITY           SKY/WX    TMP DP  RH WIND       PRES   REMARKS
LAS VEGAS, NV  SUNNY    103  24   6 S12       29.96F HX  95
ELY            SUNNY     89  15   6 S16G28    30.28F
ELKO           SUNNY     91  26   9 W10G16    30.18F
POCATELLO, ID  MOSUNNY   91  49  23 N8G21     30.21F
BURLEY         SUNNY     87  50  27 NE9       30.15F
EVANSTON, WY   SUNNY     86  30  13 SW14G20   30.42S
ROCK SPRINGS   SUNNY     90  25   9 W13G18    30.37F

$$



USA.gov is the U.S. government's official web portal to all federal, state and local government web resources and services.